User: anonymous   Login
Location: Leiter
(44.7178°N, 106.2687°W)
Time: 21:14:10
(UTC+00:00)
Language:

M-CUBED/EXP-1 PRIME - Orbit

View from above orbital plane
View from above orbital plane
View from above satellite
View from above satellite

Ground track
Ground track

The orbit data is extracted from the following two-line orbital elements,

1 37855U 11061F   22178.55945009  .00006862  00000-0  30221-3 0  9997
2 37855 101.7104 302.9817 0152660  32.0756 328.9638 15.12567966582762
Epoch (UTC): 27 June 2022 13:25:36
Eccentricity: 0.0152660
inclination: 101.7104°
perigee height: 423 km
apogee height: 634 km
right ascension of ascending node: 302.9817°
argument of perigee: 32.0756°
revolutions per day: 15.12567966
mean anomaly at epoch: 328.9638°
orbit number at epoch: 58276

The dashed part of the orbit path shows where the satellite is in the earth's shadow,  

DLR